Location: Complexul Astronomic Baia Mare
(47.6577°N, 23.5639°E)
Time: 03:17:19
(UTC+03:00)

ISS - Pass Details

Date: 19 May 2017
Orbit: 401 x 408 km, 51.6° (Epoch: 25 June)

Event Time Altitude Azimuth Distance (km) Brightness Sun altitude
Exits shadow 02:28:20 58° 325° (NW) 480 -3.4 -21.0°
Maximum altitude 02:28:30 59° 343° (NNW) 475 -3.4 -21.0°
Drops below altitude 10° 02:31:46 10° 64° (ENE) 1,470 -0.4 -20.8°
Sets 02:33:52 0° 68° (ENE) 2,330 0.6 -20.7°
